This is the latest recevied weather packets stored in our database for station/object N0MPM-4. If no packets are shown the sender has not sent any weather packets the latest 10 day(s).
| Time | Temp. | Humidity | Pressure | Rain* | Wind** | Luminosity | Snow |
|---|---|---|---|---|---|---|---|
| 1777949985 | 14.44° C | 41% | 1005.4 hPa | 0 mm | - | - | - |
| 1777949685 | 15° C | 41% | 1005.2 hPa | 0 mm | - | - | - |
| 1777949385 | 15° C | 41% | 1005.1 hPa | 0 mm | - | - | - |
| 1777949085 | 15° C | 40% | 1005 hPa | 0 mm | - | - | - |
| 1777948785 | 15° C | 40% | 1004.8 hPa | 0 mm | - | - | - |
| 1777948485 | 15° C | 40% | 1004.8 hPa | 0 mm | - | - | - |
| 1777948185 | 15° C | 40% | 1004.6 hPa | 0 mm | - | - | - |
| 1777947885 | 15.56° C | 39% | 1004.5 hPa | 0 mm | - | - | - |
| 1777947585 | 15.56° C | 38% | 1004.5 hPa | 0 mm | - | - | - |
| 1777947285 | 16.11° C | 37% | 1004.2 hPa | 0 mm | - | - | - |
| 1777946985 | 16.11° C | 36% | 1004.1 hPa | 0 mm | - | - | - |
| 1777946685 | 16.67° C | 36% | 1004.1 hPa | 0 mm | - | - | - |
| 1777946385 | 16.67° C | 35% | 1003.9 hPa | 0 mm | - | - | - |
| 1777946085 | 16.67° C | 34% | 1003.6 hPa | 0 mm | - | - | - |
| 1777945785 | 16.67° C | 34% | 1003.5 hPa | 0 mm | - | - | - |
| 1777945485 | 17.22° C | 33% | 1003.3 hPa | 0 mm | - | - | - |
| 1777944886 | 17.78° C | 32% | 1003 hPa | 0 mm | - | - | - |
| 1777944585 | 18.33° C | 32% | 1002.8 hPa | 0 mm | - | - | - |
| 1777944286 | 18.33° C | 31% | 1002.7 hPa | 0 mm | - | - | - |
| 1777943986 | 18.89° C | 32% | 1002.6 hPa | 0 mm | - | - | - |
| 1777943686 | 18.89° C | 32% | 1002.4 hPa | 0 mm | - | - | - |
| 1777943386 | 19.44° C | 31% | 1002.2 hPa | 0 mm | - | - | - |
| 1777943086 | 19.44° C | 33% | 1002 hPa | 0 mm | - | - | - |
| 1777942786 | 20° C | 32% | 1001.8 hPa | 0 mm | - | - | - |
| 1777942486 | 20.56° C | 32% | 1001.6 hPa | 0 mm | - | - | - |
* Rain latest hour (hover to see other rain measurements)
** Current wind speed in m/s (hover to see current wind gust speed)